(86430) = 1993 FD63 = 1998 RO42 = 2000 BV31

Discovered at Kitt Peak on 2000-01-27 by Spacewatch.

Orbit

Orbit type: Main Belt

Note: WebGL enabled browser required.

epoch2023-09-13.0
epoch JD2460200.5
perihelion date2020-12-28.98327
perihelion JD2459212.48327
argument of perihelion (°)112.88027
ascending node (°)317.11481
inclination (°)6.47905
eccentricity0.0855952
perihelion distance (AU)2.1488609
Tisserand w.r.t. Jupiter3.5
ΔV w.r.t. Earth (km/sec)9.3
semimajor axis (AU)2.3500104
mean anomaly (°)270.31084
mean daily motion (°/day)0.27358930
aphelion distance (AU)2.551
period (years)3.6
P-vector [x]0.33809645
P-vector [y]0.81681485
P-vector [z]0.46744442
Q-vector [x]-0.93797330
Q-vector [y]0.33299245
Q-vector [z]0.09655108
absolute magnitude15.77
phase slope0.15
uncertainty0
referenceMPEC 2024-A48
observations used1140
oppositions17
arc length (days)11189
first opposition used1993
last opposition used2023
residual rms (arc-secs)0.68
perturbers coarse indicatorM-v
perturbers precise indicator003Ek
first observation date used1993-03-22.0
last observation date used2023-11-09.0
computer nameMPCLINUX
JD of orbit computation2456819.476522
perihelion JD uncertainty (days)1.7499E-04
argument of perihelion uncertainty (°)6.7763E-05
ascending node uncertainty (°)4.5579E-05
inclination uncertainty (°)6.7126E-06
eccentricity uncertainty 4.7489E-08
perihelion distance uncertainty (AU)1.1278E-07
Minimum Orbit Intersection Distances (in AU)
for orbit epoch: 2460200.5, reference: E2024-A48
Mercury1.84146
Venus1.43432
Earth1.17202
Mars0.57418
Jupiter2.63958
Saturn6.89455
Uranus16.0734
Neptune27.6291

Observations

1166 total observations over interval: 1993 03 21.12743 – 2023 11 09.117471
These data are available for download (format description).

Date (UT) J2000 RA J2000 Dec Magn Location Ref
1993 03 21.12743 12 15 52.45 -10 31 15.6 18.6   809 – European Southern Observatory, La Silla MPC 23625
1993 03 22.12465 12 14 52.24 -10 27 25.5 18.7   809 – European Southern Observatory, La Silla MPC 23625
1993 04 17.48468 11 51 08.11 -08 22 06.7 19.0   413 – Siding Spring Observatory MPS 26635
1998 08 17.36969 23 59 17.99 +05 29 59.8 19.5   704 – Lincoln Laboratory ETS, New Mexico MPS 16402
1998 08 17.39085 23 59 17.24 +05 29 59.3 19.8   704 – Lincoln Laboratory ETS, New Mexico MPS 16402
1998 08 17.41198 23 59 16.65 +05 30 03.9 19.6   704 – Lincoln Laboratory ETS, New Mexico MPS 16402
1998 08 17.43294 23 59 16.04 +05 30 04.0 19.6   704 – Lincoln Laboratory ETS, New Mexico MPS 16402
1998 09 14.25610 23 37 22.48 +05 08 29.1 18.9   704 – Lincoln Laboratory ETS, New Mexico MPS 2322
1998 09 14.27814 23 37 20.96 +05 08 25.8 19.4   704 – Lincoln Laboratory ETS, New Mexico MPS 2322
1998 09 14.30022 23 37 19.59 +05 08 21.8 19.2   704 – Lincoln Laboratory ETS, New Mexico MPS 2322
1998 09 14.32221 23 37 18.28 +05 08 17.5 19.4   704 – Lincoln Laboratory ETS, New Mexico MPS 2322
1998 09 16.21890 23 35 24.67 +05 02 24.1 18.2 R 699 – Lowell Observatory-LONEOS MPS 54565
1998 09 16.24374 23 35 23.08 +05 02 20.6   699 – Lowell Observatory-LONEOS MPS 54565
1998 09 16.26348 23 35 21.89 +05 02 16.7   699 – Lowell Observatory-LONEOS MPS 54565
1998 09 18.31187 23 33 18.23 +04 55 29.0 18.6   704 – Lincoln Laboratory ETS, New Mexico MPS 2322
1998 09 18.32470 23 33 17.47 +04 55 24.7 19.2   704 – Lincoln Laboratory ETS, New Mexico MPS 2322
1998 09 18.33775 23 33 16.44 +04 55 24.8 19.0   704 – Lincoln Laboratory ETS, New Mexico MPS 2322
1998 09 18.36416 23 33 14.91 +04 55 17.3 18.9   704 – Lincoln Laboratory ETS, New Mexico MPS 2322
1998 09 27.18874 23 24 35.04 +04 22 09.6 18.2 R 699 – Lowell Observatory-LONEOS MPS 54459
1998 09 27.23841 23 24 32.07 +04 21 58.1   699 – Lowell Observatory-LONEOS MPS 54459
1998 09 27.24664 23 24 31.60 +04 21 56.2   699 – Lowell Observatory-LONEOS MPS 54459
2000 01 27.49050 11 03 16.67 +03 36 16.1 18.7 V 691 – Steward Observatory, Kitt Peak-Spacewatch MPS 16811
2000 01 27.51158 11 03 15.96 +03 36 15.0 18.7 V 691 – Steward Observatory, Kitt Peak-Spacewatch MPS 16811
2000 01 27.53267 11 03 15.28 +03 36 14.0 18.7 V 691 – Steward Observatory, Kitt Peak-Spacewatch MPS 16811
2000 02 02.39055 10 59 44.02 +03 34 38.2 19.1   704 – Lincoln Laboratory ETS, New Mexico MPS 16811
2000 02 02.41609 10 59 42.85 +03 34 39.4 19.4   704 – Lincoln Laboratory ETS, New Mexico MPS 16811
2000 02 02.44605 10 59 41.66 +03 34 38.5 19.6   704 – Lincoln Laboratory ETS, New Mexico MPS 16811
2000 02 02.46071 10 59 40.95 +03 34 40.2 19.7   704 – Lincoln Laboratory ETS, New Mexico MPS 16811
2000 02 02.47510 10 59 40.36 +03 34 40.4 19.2   704 – Lincoln Laboratory ETS, New Mexico MPS 16811
2000 02 02.49727 10 59 39.29 +03 34 39.9 18.7 V 691 – Steward Observatory, Kitt Peak-Spacewatch MPS 16811
2000 02 02.51498 10 59 38.57 +03 34 40.2 18.5 V 691 – Steward Observatory, Kitt Peak-Spacewatch MPS 16811
2000 02 02.53265 10 59 37.88 +03 34 40.2 18.5 V 691 – Steward Observatory, Kitt Peak-Spacewatch MPS 16811
2000 03 01.37971 10 33 20.08 +04 31 19.6 18.0   704 – Lincoln Laboratory ETS, New Mexico MPS 16811
2000 03 01.39310 10 33 19.27 +04 31 22.6 17.6   704 – Lincoln Laboratory ETS, New Mexico MPS 16811
2000 03 01.40733 10 33 18.45 +04 31 26.1 18.6   704 – Lincoln Laboratory ETS, New Mexico MPS 16811
2000 03 11.21922 10 23 31.95 +05 02 39.0 18.2 R 699 – Lowell Observatory-LONEOS MPS 16811
2000 03 11.24279 10 23 30.57 +05 02 43.7   699 – Lowell Observatory-LONEOS MPS 16811
2000 03 11.26639 10 23 29.19 +05 02 47.6   699 – Lowell Observatory-LONEOS MPS 16811
2000 03 11.29003 10 23 27.86 +05 02 52.0   699 – Lowell Observatory-LONEOS MPS 16811
2002 10 10.33416 04 18 29.43 +31 33 52.9 18.4   704 – Lincoln Laboratory ETS, New Mexico MPS 67589
2002 10 10.34990 04 18 29.52 +31 33 56.9 19.1   704 – Lincoln Laboratory ETS, New Mexico MPS 67589
2002 10 10.36559 04 18 29.47 +31 33 59.7 19.0   704 – Lincoln Laboratory ETS, New Mexico MPS 67589
2002 10 10.38129 04 18 29.57 +31 34 04.2 19.0   704 – Lincoln Laboratory ETS, New Mexico MPS 67589
2002 10 10.39708 04 18 29.47 +31 34 08.7 19.3   704 – Lincoln Laboratory ETS, New Mexico MPS 67589
2002 11 06.31990 04 05 43.98 +32 28 47.6 17.6   704 – Lincoln Laboratory ETS, New Mexico MPS 67589
2002 11 06.33685 04 05 42.95 +32 28 47.4 18.1   704 – Lincoln Laboratory ETS, New Mexico MPS 67589
2002 11 06.35380 04 05 42.01 +32 28 46.6 18.3   704 – Lincoln Laboratory ETS, New Mexico MPS 67589
2002 11 06.37039 04 05 40.99 +32 28 46.2 18.3   704 – Lincoln Laboratory ETS, New Mexico MPS 67589
2002 11 06.38718 04 05 40.00 +32 28 45.6 18.4   704 – Lincoln Laboratory ETS, New Mexico MPS 67589
2002 11 11.96619 04 00 03.37 +32 22 19.3 17.8 R 636 – Essen MPS 65532
2002 11 11.97032 04 00 03.21 +32 22 18.2   636 – Essen MPS 65532
2002 11 12.00159 04 00 01.11 +32 22 15.6 17.7 R 636 – Essen MPS 65532
2002 11 12.41675 03 59 34.32 +32 21 31.5 18.4   644 – Palomar Mountain/NEAT MPS 65532
2002 11 12.43797 03 59 32.89 +32 21 28.7 18.6   644 – Palomar Mountain/NEAT MPS 65532
2002 11 12.45933 03 59 31.48 +32 21 26.0 18.5   644 – Palomar Mountain/NEAT MPS 65532
2002 11 15.25031 03 56 28.81 +32 15 14.7 18.1   704 – Lincoln Laboratory ETS, New Mexico MPS 65532
2002 11 15.26749 03 56 27.57 +32 15 12.1 18.5   704 – Lincoln Laboratory ETS, New Mexico MPS 65532
2002 11 15.28457 03 56 26.41 +32 15 10.0 18.5   704 – Lincoln Laboratory ETS, New Mexico MPS 65532
2002 11 15.31876 03 56 23.96 +32 15 05.1 18.2   704 – Lincoln Laboratory ETS, New Mexico MPS 65532
2002 12 03.40474 03 36 10.07 +30 55 13.4 18.0   644 – Palomar Mountain/NEAT MPS 67589
2002 12 03.43766 03 36 08.00 +30 55 01.2 18.1   644 – Palomar Mountain/NEAT MPS 67589
2002 12 03.46196 03 36 06.46 +30 54 52.1 18.2   644 – Palomar Mountain/NEAT MPS 67589
2002 12 05.22054 03 34 21.32 +30 44 17.2 18.7   704 – Lincoln Laboratory ETS, New Mexico MPS 67589
2002 12 05.23602 03 34 20.40 +30 44 12.1 19.0   704 – Lincoln Laboratory ETS, New Mexico MPS 67589
2002 12 05.25152 03 34 19.41 +30 44 06.3 19.0   704 – Lincoln Laboratory ETS, New Mexico MPS 67589
2002 12 05.26680 03 34 18.47 +30 44 00.8 18.9   704 – Lincoln Laboratory ETS, New Mexico MPS 67589
2002 12 05.28234 03 34 17.52 +30 43 54.9 19.0   704 – Lincoln Laboratory ETS, New Mexico MPS 67589
2002 12 06.20545 03 33 24.17 +30 38 13.2 18.7   704 – Lincoln Laboratory ETS, New Mexico MPS 67589
2002 12 06.21092 03 33 23.83 +30 38 11.6 18.4   704 – Lincoln Laboratory ETS, New Mexico MPS 67589
2002 12 06.22056 03 33 23.27 +30 38 08.4 18.9   704 – Lincoln Laboratory ETS, New Mexico MPS 67589
2002 12 06.22638 03 33 22.90 +30 38 06.2 18.8   704 – Lincoln Laboratory ETS, New Mexico MPS 67589
2002 12 06.23544 03 33 22.41 +30 38 02.4 19.2   704 – Lincoln Laboratory ETS, New Mexico MPS 67589
2002 12 06.24167 03 33 21.99 +30 38 00.8 18.8   704 – Lincoln Laboratory ETS, New Mexico MPS 67589
2002 12 06.25027 03 33 21.50 +30 37 56.9 19.1   704 – Lincoln Laboratory ETS, New Mexico MPS 67589
2002 12 06.25718 03 33 21.04 +30 37 54.8 18.7   704 – Lincoln Laboratory ETS, New Mexico MPS 67589
2002 12 06.26515 03 33 20.63 +30 37 51.6 19.3   704 – Lincoln Laboratory ETS, New Mexico MPS 67589
2002 12 06.27250 03 33 20.15 +30 37 49.5 18.8   704 – Lincoln Laboratory ETS, New Mexico MPS 67589
2002 12 07.20572 03 32 27.65 +30 31 58.7 18.2   644 – Palomar Mountain/NEAT MPS 67589
2002 12 07.26784 03 32 24.02 +30 31 35.4 19.9   644 – Palomar Mountain/NEAT MPS 67589
2002 12 07.33045 03 32 20.36 +30 31 11.5 18.0   644 – Palomar Mountain/NEAT MPS 67589
2002 12 09.21409 03 30 39.05 +30 19 13.2 17.9 R 699 – Lowell Observatory-LONEOS MPS 67589
2002 12 09.23027 03 30 38.17 +30 19 07.1   699 – Lowell Observatory-LONEOS MPS 67589
2002 12 09.24646 03 30 37.26 +30 19 00.4   699 – Lowell Observatory-LONEOS MPS 67589
2002 12 09.26263 03 30 36.38 +30 18 54.7   699 – Lowell Observatory-LONEOS MPS 67589
2002 12 11.27837 03 28 54.82 +30 05 52.5 18.5   644 – Palomar Mountain/NEAT MPS 67589
2002 12 11.29964 03 28 53.79 +30 05 44.4 18.6   644 – Palomar Mountain/NEAT MPS 67589
